HI8S-13 Weather Reports


time (UTC)temp
F
wind
direction
speed
knots
gust
knots
rain 1hr
in
rain 24hr
in
rain mn
in
humidity
%
barometer
mb
20260507200827 88 191 4.3 7.0 0.00 0.00 0.00 68 1014.1
20260507200332 87 127 3.5 7.8 0.00 0.00 0.00 68 1014.1
20260507195830 87 153 3.5 7.8 0.00 0.00 0.00 68 1014.2
20260507195328 88 165 3.5 7.0 0.00 0.00 0.00 68 1014.3
20260507194833 88 158 1.7 8.7 0.00 0.00 0.00 68 1014.2
20260507194330 88 171 2.6 8.7 0.00 0.00 0.00 68 1014.2
20260507193827 88 212 4.3 7.8 0.00 0.00 0.00 67 1014.3
20260507193332 88 170 1.7 8.7 0.00 0.00 0.00 67 1014.3
20260507192830 88 105 3.5 8.7 0.00 0.00 0.00 66 1014.4
20260507192326 88 204 1.7 7.8 0.00 0.00 0.00 67 1014.5
20260507191831 87 163 4.3 9.6 0.00 0.00 0.00 67 1014.5
20260507191328 88 184 4.3 9.6 0.00 0.00 0.00 66 1014.7
20260507190833 88 177 2.6 8.7 0.00 0.00 0.00 66 1014.7
20260507190330 88 335 0.9 8.7 0.00 0.00 0.00 67 1014.7
20260507185828 88 163 1.7 7.0 0.00 0.00 0.00 67 1014.8
20260507185327 88 155 3.5 7.0 0.00 0.00 0.00 65 1014.8
20260507184831 88 184 1.7 7.0 0.00 0.00 0.00 67 1014.9
20260507184326 88 184 1.7 8.7 0.00 0.00 0.00 67 1015.1
20260507183831 88 163 4.3 8.7 0.00 0.00 0.00 66 1015.1
20260507183335 88 191 3.5 9.6 0.00 0.00 0.00 66 1015.1
20260507182839 88 164 3.5 9.6 0.00 0.00 0.00 66 1015.2
20260507182328 88 162 5.2 9.6 0.00 0.00 0.00 66 1015.2
20260507181833 88 331 0.9 8.7 0.00 0.00 0.00 67 1015.2
20260507181329 88 197 3.5 8.7 0.00 0.00 0.00 66 1015.4
20260507180826 88 134 2.6 8.7 0.00 0.00 0.00 68 1015.5
20260507180332 88 206 3.5 7.0 0.00 0.00 0.00 68 1015.5
20260507175826 87 205 3.5 8.7 0.00 0.00 0.00 69 1015.6
20260507175330 88 149 5.2 8.7 0.00 0.00 0.00 68 1015.8
20260507174828 88 216 4.3 8.7 0.00 0.00 0.00 68 1015.8
20260507174334 87 217 4.3 8.7 0.00 0.00 0.00 68 1015.9
20260507173830 88 233 3.5 8.7 0.00 0.00 0.00 68 1016.0
20260507173327 87 160 1.7 8.7 0.00 0.00 0.00 68 1016.1
20260507172833 87 181 3.5 8.7 0.00 0.00 0.00 68 1016.1
20260507172327 87 158 2.6 9.6 0.00 0.00 0.00 69 1016.1
20260507171832 86 204 5.2 10.4 0.00 0.00 0.00 72 1016.2
20260507171329 87 108 5.2 10.4 0.00 0.00 0.00 72 1016.3
20260507170834 87 145 5.2 10.4 0.00 0.00 0.00 72 1016.4
20260507170329 87 166 5.2 10.4 0.00 0.00 0.00 72 1016.5
20260507165828 87 134 4.3 10.4 0.00 0.00 0.00 70 1016.5
20260507165330 87 212 4.3 8.7 0.00 0.00 0.00 71 1016.5
20260507164828 87 166 3.5 10.4 0.00 0.00 0.00 71 1016.5
20260507164326 87 274 5.2 10.4 0.00 0.00 0.00 70 1016.6
20260507163831 87 176 4.3 9.6 0.00 0.00 0.00 70 1016.7
20260507163327 88 186 4.3 9.6 0.00 0.00 0.00 70 1016.8
20260507162832 88 109 4.3 8.7 0.00 0.00 0.00 67 1016.8
20260507162329 88 174 1.7 7.8 0.00 0.00 0.00 69 1016.9
20260507161833 88 251 3.5 7.0 0.00 0.00 0.00 69 1016.8
20260507161330 88 206 3.5 7.0 0.00 0.00 0.00 69 1016.9
20260507160828 88 144 4.3 7.8 0.00 0.00 0.00 69 1016.9
20260507160333 87 169 3.5 9.6 0.00 0.00 0.00 69 1017.0
20260507155834 87 131 4.3 8.7 0.00 0.00 0.00 68 1017.1
20260507155330 88 206 5.2 9.6 0.00 0.00 0.00 68 1017.0
20260507154832 88 224 3.5 9.6 0.00 0.00 0.00 67 1017.1
20260507154329 89 154 2.6 8.7 0.00 0.00 0.00 68 1017.1
20260507153857 89 192 2.6 7.0 0.00 0.00 0.00 66 1017.1
20260507153826 89 192 2.6 7.0 0.00 0.00 0.00 66 1017.1
20260507153528 88 181 1.7 7.0 0.00 0.00 0.00 68 1017.1
20260507153332 88 181 1.7 7.0 0.00 0.00 0.00 68 1017.1
20260507152828 88 184 2.6 6.1 0.00 0.00 0.00 68 1017.1
20260507152332 88 151 2.6 7.0 0.00 0.00 0.00 67 1017.1
20260507152239 87 116 2.6 10.4 0.00 0.00 0.00 67 1017.0
20260507151831 87 116 2.6 10.4 0.00 0.00 0.00 67 1017.0
20260507151331 88 172 5.2 10.4 0.00 0.00 0.00 68 1017.1
20260507150826 88 172 1.7 7.8 0.00 0.00 0.00 67 1017.0
20260507150330 88 169 0.9 8.7 0.00 0.00 0.00 68 1017.1
20260507145827 88 177 2.6 8.7 0.00 0.00 0.00 67 1017.2
20260507145330 88 172 1.7 7.8 0.00 0.00 0.00 67 1017.2
20260507144827 88 188 1.7 7.8 0.00 0.00 0.00 66 1017.1
20260507144333 88 188 3.5 6.1 0.00 0.00 0.00 66 1017.1
20260507143828 87 155 0.9 6.1 0.00 0.00 0.00 68 1017.1
20260507143332 86 157 2.6 6.1 0.00 0.00 0.00 68 1017.0
20260507142830 86 169 0.9 4.3 0.00 0.00 0.00 69 1017.1
20260507142327 86 172 0.0 4.3 0.00 0.00 0.00 70 1017.1
20260507141832 86 176 0.0 3.5 0.00 0.00 0.00 70 1017.1
20260507141329 86 255 0.0 4.3 0.00 0.00 0.00 70 1017.1
20260507140827 87 29 0.9 4.3 0.00 0.00 0.00 68 1017.1
20260507140332 87 170 1.7 3.5 0.00 0.00 0.00 67 1017.2
20260507135828 87 155 0.0 3.5 0.00 0.00 0.00 68 1017.4
20260507135333 87 186 0.0 6.1 0.00 0.00 0.00 69 1017.3
20260507134829 86 167 0.9 7.0 0.00 0.00 0.00 69 1017.3
20260507134333 86 115 3.5 7.0 0.00 0.00 0.00 70 1017.3
20260507133839 85 202 0.0 0.9 0.00 0.00 0.00 74 1017.3
20260507133343 84 49 0.0 1.7 0.00 0.00 0.00 76 1017.3
20260507132826 84 174 0.0 1.7 0.00 0.00 0.00 76 1017.4
20260507132332 84 54 0.0 1.7 0.00 0.00 0.00 77 1017.2
20260507131838 84 45 0.0 1.7 0.00 0.00 0.00 77 1017.3
20260507131343 84 46 0.0 2.6 0.00 0.00 0.00 78 1017.3
20260507130827 83 69 0.0 4.3 0.00 0.00 0.00 78 1017.3
20260507130345 83 345 0.9 4.3 0.00 0.00 0.00 79 1017.3
20260507125828 83 30 0.0 2.6 0.00 0.00 0.00 79 1017.3
20260507125333 83 347 0.0 5.2 0.00 0.00 0.00 79 1017.3
20260507124839 82 100 0.0 5.2 0.00 0.00 0.00 80 1017.2
20260507124344 82 169 0.0 5.2 0.00 0.00 0.00 80 1017.2
20260507123828 83 18 0.0 0.9 0.00 0.00 0.00 80 1017.1
20260507123326 82 40 0.0 1.7 0.00 0.00 0.00 81 1017.0
20260507122828 82 62 0.0 3.5 0.00 0.00 0.00 82 1016.9
20260507122326 81 65 0.9 3.5 0.00 0.00 0.00 82 1016.9
20260507121831 81 7 0.0 4.3 0.00 0.00 0.00 83 1016.8
20260507121336 80 30 0.9 4.3 0.00 0.00 0.00 83 1016.8
20260507120840 80 7 0.9 3.5 0.00 0.00 0.00 84 1016.8
20260507120327 80 360 0.0 0.0 0.00 0.00 0.00 84 1016.7
20260507115833 79 64 0.0 0.0 0.00 0.00 0.00 85 1016.8
20260507115337 79 350 0.0 3.5 0.00 0.00 0.00 85 1016.7
20260507114842 79 323 0.9 3.5 0.00 0.00 0.00 86 1016.7
20260507114328 78 87 0.0 2.6 0.00 0.00 0.00 86 1016.6
20260507113833 78 4 0.0 3.5 0.00 0.00 0.00 87 1016.6
20260507113329 78 8 0.0 3.5 0.00 0.00 0.00 87 1016.5
20260507112834 77 72 0.9 3.5 0.00 0.00 0.00 87 1016.5
20260507112337 77 354 0.0 1.7 0.00 0.00 0.00 88 1016.4
20260507111843 77 3 0.0 1.7 0.00 0.00 0.00 88 1016.4
20260507111327 77 63 0.0 2.6 0.00 0.00 0.00 88 1016.3
20260507110833 76 292 0.0 2.6 0.00 0.00 0.00 88 1016.3
20260507110329 76 335 0.0 2.6 0.00 0.00 0.00 88 1016.2
20260507105834 76 63 0.0 2.6 0.00 0.00 0.00 88 1016.2
20260507105339 76 11 0.9 3.5 0.00 0.00 0.00 88 1016.2
20260507104843 76 11 0.9 3.5 0.00 0.00 0.00 88 1016.1
20260507104327 76 21 0.9 3.5 0.00 0.00 0.00 88 1016.1
20260507103833 76 321 0.0 2.6 0.00 0.00 0.00 89 1016.0
20260507103331 76 26 284.2 2.6 0.00 0.00 0.00 89 1016.0
20260507102835 0 0.0 0.0 0.00 0.00 0.00 1015.9
20260507102339 0 0.0 0.0 0.00 0.00 0.00 1015.8
20260507101844 0 0.0 0.0 0.00 0.00 0.00 1015.7
20260507100329 0 0.0 0.0 0.00 0.00 0.00 1015.8
20260507095834 0 0.0 0.0 0.00 0.00 0.00 1015.7
20260507095338 0 0.0 0.0 0.00 0.00 0.00 1015.8
20260507093831 0 0.0 0.0 0.00 0.00 0.00 1015.7
20260507093326 0 0.0 0.0 0.00 0.00 0.00 1015.6
20260507092831 0 0.0 0.0 0.00 0.00 0.00 1015.6
20260507091329 0 0.0 0.0 0.00 0.00 0.00 1015.5
20260507090833 0 0.0 0.0 0.00 0.00 0.00 1015.5
20260507090327 0 0.0 0.0 0.00 0.00 0.00 1015.4
20260507085403 0 0.0 0.0 0.00 0.00 0.00 1015.3
20260507084828 0 0.0 0.0 0.00 0.00 0.00 1015.2
20260507084333 0 0.0 0.0 0.00 0.00 0.00 1015.2
20260507083831 0 0.0 0.0 0.00 0.00 0.00 1015.2
20260507082903 0 0.0 0.0 0.00 0.00 0.00 1015.2
20260507082328 0 0.0 0.0 0.00 0.00 0.00 1015.3
20260507081844 0 0.0 0.0 0.00 0.00 0.00 1015.3
20260507081329 0 0.0 0.0 0.00 0.00 0.00 1015.3
20260507080916 0 0.0 0.0 0.00 0.00 0.00 1015.3
20260507080403 0 0.0 0.0 0.00 0.00 0.00 1015.3
20260507075832 0 0.0 0.0 0.00 0.00 0.00 1015.4
20260507075329 0 0.0 0.0 0.00 0.00 0.00 1015.4
20260507074834 0 0.0 0.0 0.00 0.00 0.00 1015.4
20260507073903 0 0.0 0.0 0.00 0.00 0.00 1015.5
20260507073338 0 0.0 0.0 0.00 0.00 0.00 1015.6
20260507072842 0 0.0 0.0 0.00 0.00 0.00 1015.6
20260507072326 0 0.0 0.0 0.00 0.00 0.00 1015.7
20260507071912 0 0.0 0.0 0.00 0.00 0.00 1015.6
20260507071403 0 0.0 0.0 0.00 0.00 0.00 1015.8
20260507070835 0 0.0 0.0 0.00 0.00 0.00 1015.7
20260507070340 0 0.0 0.0 0.00 0.00 0.00 1015.8
20260507065826 0 0.0 0.0 0.00 0.00 0.00 1015.9
20260507064325 0 0.0 0.0 0.00 0.00 0.00 1016.1
20260507063830 0 0.0 0.0 0.00 0.00 0.00 1016.0
20260507063335 0 0.0 0.0 0.00 0.00 0.00 1016.2
20260507062330 0 0.0 0.0 0.00 0.00 0.00 1016.2
20260507061832 0 0.0 0.0 0.00 0.00 0.00 1016.2
20260507061329 0 0.0 0.0 0.00 0.00 0.00 1016.3
20260507060833 0 0.0 0.0 0.00 0.00 0.00 1016.3
20260507055330 0 0.0 0.0 0.00 0.00 0.00 1016.5
20260507054835 0 0.0 0.0 0.00 0.00 0.00 1016.6
20260507054339 0 0.0 0.0 0.00 0.00 0.00 1016.6
20260507053405 0 0.0 0.0 0.00 0.00 0.00 1016.7
20260507052828 0 0.0 0.0 0.00 0.00 0.00 1016.8
20260507052333 0 0.0 0.0 0.00 0.00 0.00 1016.9
20260507051829 0 0.0 0.0 0.00 0.00 0.00 1017.0
20260507050334 0 0.0 0.0 0.00 0.00 0.00 1017.0
20260507045829 0 0.0 0.0 0.00 0.00 0.00 1017.1
20260507045333 0 0.0 0.0 0.00 0.00 0.00 1017.1
20260507043832 0 0.0 0.0 0.00 0.00 0.00 1017.3
20260507043335 0 0.0 0.0 0.00 0.00 0.00 1017.3
20260507042839 0 0.0 0.0 0.00 0.00 0.00 1017.4
20260507041830 0 0.0 0.0 0.00 0.00 0.00 1017.5
20260507041332 0 0.0 0.0 0.00 0.00 0.00 1017.5
20260507040838 0 0.0 0.0 0.00 0.00 0.00 1017.5
20260507040343 0 0.0 0.0 0.00 0.00 0.00 1017.6
20260507035907 0 0.0 0.0 0.00 0.00 0.00 1017.6
20260507035405 0 0.0 0.0 0.00 0.00 0.00 1017.7
20260507034843 0 0.0 0.0 0.00 0.00 0.00 1017.8
20260507034328 0 0.0 0.0 0.00 0.00 0.00 1017.7
20260507033833 0 0.0 0.0 0.00 0.00 0.00 1017.9
20260507032849 79 23 0.0 0.0 0.00 0.00 0.00 81 1017.8
20260507032328 81 13 0.0 0.0 0.00 0.00 0.00 81 1017.9
20260507031833 81 60 0.0 0.9 0.00 0.00 0.00 80 1017.9
20260507031330 81 62 0.0 0.9 0.00 0.00 0.00 80 1017.9
20260507030828 81 328 0.0 0.0 0.00 0.00 0.00 80 1017.8
20260507030333 81 335 0.0 0.0 0.00 0.00 0.00 80 1017.8
20260507025831 81 334 0.0 0.0 0.00 0.00 0.00 80 1017.8
20260507025329 81 179 0.0 0.0 0.00 0.00 0.00 80 1017.9
20260507024832 81 179 0.0 3.5 0.00 0.00 0.00 79 1017.8
20260507024329 81 162 0.0 2.6 0.00 0.00 0.00 79 1017.8
20260507023828 82 219 0.0 0.0 0.00 0.00 0.00 79 1017.7
20260507023331 82 157 0.0 0.0 0.00 0.00 0.00 79 1017.6
20260507022827 82 142 0.0 0.0 0.00 0.00 0.00 79 1017.6
20260507022333 82 146 0.0 4.3 0.00 0.00 0.00 79 1017.7
20260507021831 82 188 0.9 4.3 0.00 0.00 0.00 79 1017.6
20260507021327 82 146 0.0 2.6 0.00 0.00 0.00 78 1017.6
20260507020832 82 156 0.0 0.9 0.00 0.00 0.00 78 1017.6
20260507020328 82 168 0.0 3.5 0.00 0.00 0.00 79 1017.5
20260507015832 82 154 0.0 5.2 0.00 0.00 0.00 79 1017.4
20260507015329 82 179 1.7 5.2 0.00 0.00 0.00 78 1017.4
20260507014827 82 155 0.0 5.2 0.00 0.00 0.00 77 1017.4
20260507014332 82 171 0.9 4.3 0.00 0.00 0.00 78 1017.3
20260507013827 82 172 1.7 4.3 0.00 0.00 0.00 78 1017.1
20260507013334 82 158 0.9 4.3 0.00 0.00 0.00 78 1017.0
20260507012827 82 170 0.9 3.5 0.00 0.00 0.00 79 1017.1
20260507012331 82 156 0.0 3.5 0.00 0.00 0.00 79 1017.0
20260507011829 82 156 0.0 4.3 0.00 0.00 0.00 78 1017.0
20260507011334 82 179 0.9 4.3 0.00 0.00 0.00 78 1017.0
20260507010831 82 174 0.0 1.7 0.00 0.00 0.00 78 1016.9
20260507010328 82 162 0.0 3.5 0.00 0.00 0.00 78 1016.9
20260507005834 82 146 0.9 3.5 0.00 0.00 0.00 78 1016.8
20260507005327 82 168 0.0 2.6 0.00 0.00 0.00 78 1016.8
20260507004831 82 159 0.9 3.5 0.00 0.00 0.00 78 1016.8
20260507004329 82 156 0.0 5.2 0.00 0.00 0.00 78 1016.8
20260507003835 82 176 3.5 5.2 0.00 0.00 0.00 78 1016.8
20260507003331 82 172 1.7 3.5 0.00 0.00 0.00 78 1016.8
20260507002828 82 186 0.9 4.3 0.00 0.00 0.00 78 1016.7
20260507002331 82 163 0.0 4.3 0.00 0.00 0.00 78 1016.7
20260507001833 82 178 0.9 3.5 0.00 0.00 0.00 77 1016.6
20260507001331 82 179 0.9 5.2 0.00 0.00 0.00 77 1016.6
20260507000829 82 156 0.9 5.2 0.00 0.00 0.00 76 1016.6
20260507000332 82 188 2.6 5.2 0.00 0.00 0.00 76 1016.5
20260506235827 83 188 0.0 4.3 0.00 0.00 0.00 77 1016.4
20260506235326 82 177 0.9 4.3 0.00 0.00 0.00 77 1016.4
20260506234828 82 165 1.7 6.1 0.00 0.00 0.00 78 1016.5
20260506234332 82 149 0.9 6.1 0.00 0.00 0.00 77 1016.4
20260506233829 83 136 2.6 5.2 0.00 0.00 0.00 76 1016.4
20260506233327 83 183 1.7 4.3 0.00 0.00 0.00 76 1016.3
20260506232833 83 183 0.9 6.1 0.00 0.00 0.00 76 1016.3
20260506232330 83 210 2.6 6.1 0.00 0.00 0.00 76 1016.2
20260506231834 83 169 2.6 7.0 0.00 0.00 0.00 75 1016.2
20260506231329 83 148 1.7 7.0 0.00 0.00 0.00 76 1016.1
20260506230827 83 214 0.0 3.5 0.00 0.00 0.00 77 1016.1
20260506230332 83 217 0.9 3.5 0.00 0.00 0.00 76 1016.1
20260506225827 84 153 1.7 4.3 0.00 0.00 0.00 75 1016.0
20260506225332 84 176 0.9 5.2 0.00 0.00 0.00 74 1016.0
20260506224829 84 158 0.9 5.2 0.00 0.00 0.00 74 1016.0
20260506224333 84 146 0.9 4.3 0.00 0.00 0.00 74 1015.9
20260506223830 84 147 0.9 4.3 0.00 0.00 0.00 73 1015.9
20260506223328 84 160 0.0 3.5 0.00 0.00 0.00 74 1015.9
20260506222834 85 165 0.0 4.3 0.00 0.00 0.00 74 1015.9
20260506222329 85 109 0.9 4.3 0.00 0.00 0.00 72 1015.9
20260506221827 85 205 0.9 7.0 0.00 0.00 0.00 72 1015.8
20260506221330 85 182 2.6 7.0 0.00 0.00 0.00 72 1015.8
20260506220833 85 147 0.9 7.0 0.00 0.00 0.00 72 1015.7
20260506220330 85 168 1.7 6.1 0.00 0.00 0.00 71 1015.7
20260506215827 86 178 0.0 6.1 0.00 0.00 0.00 71 1015.6
20260506215332 86 174 0.9 7.8 0.00 0.00 0.00 71 1015.5
20260506214829 86 150 4.3 7.8 0.00 0.00 0.00 70 1015.6
20260506214326 86 195 0.9 5.2 0.00 0.00 0.00 70 1015.6
20260506213830 86 148 1.7 5.2 0.00 0.00 0.00 70 1015.5
20260506213327 86 216 1.7 7.0 0.00 0.00 0.00 69 1015.4
20260506212830 87 198 2.6 7.0 0.00 0.00 0.00 69 1015.4
20260506212328 87 172 0.9 5.2 0.00 0.00 0.00 68 1015.4
20260506211833 88 170 0.9 4.3 0.00 0.00 0.00 68 1015.4
20260506211329 87 165 0.9 6.1 0.00 0.00 0.00 68 1015.4
20260506210826 87 291 1.7 6.1 0.00 0.00 0.00 69 1015.3
20260506210328 87 172 0.9 5.2 0.00 0.00 0.00 68 1015.3
20260506205832 87 128 0.9 5.2 0.00 0.00 0.00 68 1015.3
20260506205329 87 142 0.9 5.2 0.00 0.00 0.00 68 1015.3
20260506204826 87 178 0.9 7.0 0.00 0.00 0.00 68 1015.3
20260506204331 88 176 2.6 7.0 0.00 0.00 0.00 66 1015.4
20260506203829 88 82 0.9 3.5 0.00 0.00 0.00 66 1015.3
20260506203326 88 159 0.9 6.1 0.00 0.00 0.00 66 1015.4
20260506202827 88 179 0.9 6.1 0.00 0.00 0.00 67 1015.4
20260506202332 88 162 1.7 5.2 0.00 0.00 0.00 68 1015.5
20260506201829 87 214 2.6 6.1 0.00 0.00 0.00 68 1015.4
20260506201327 88 239 1.7 6.1 0.00 0.00 0.00 66 1015.5